Location: Kiltepe
(36.4752°N, 30.0120°E)
Time: 03:06:46
(UTC+00:00)

Cosmos 1726 Rocket - Pass Details

Date: 03 August 2024
Orbit: 599 x 625 km, 82.5° (Epoch: 10 September)

Event Time Altitude Azimuth Distance (km) Brightness Sun altitude
Rises 18:07:59 0° 359° (N) 2,852 7.5 -12.3°
Reaches altitude 10° 18:10:16 10° 6° (N) 1,946 6.5 -12.7°
Maximum altitude 18:14:25 46° 80° (E) 808 3.8 -13.4°
Enters shadow 18:17:04 20° 146° (SE) 1,395 4.8 -13.8°
